When you browse on this site, cookies collect data to enhance your experience and personalize the content and advertising you see.
Visit our Privacy Policy to learn more. By continuing to use the site, you agree to this use of cookies and data.
  • en France
  • Liste des pays
  • À 7 jours
  • Température de l'eau
  • Carte météo
  • Widgets météo
  • user-avatar
    Se connecter

    Météo par heure à Melbourne

    Ce jour, 24 Août, Samedi

    Heure Température Précipitation Vent Pression Humidité
    00:00 +8°C° 0 mm 5 m/s 763 mmHg 63%
    01:00 +8°C° 0 mm 5 m/s 762 mmHg 64%
    02:00 +8°C° 0 mm 6 m/s 762 mmHg 64%
    03:00 +7°C° 0 mm 6 m/s 762 mmHg 64%
    04:00 +7°C° 0 mm 6 m/s 761 mmHg 65%
    05:00 +6°C° 0 mm 7 m/s 761 mmHg 65%
    06:00 +6°C° 0 mm 7 m/s 761 mmHg 65%
    07:00 +6°C° 0 mm 7 m/s 761 mmHg 65%
    08:00 +7°C° 0 mm 8 m/s 760 mmHg 61%
    09:00 +10°C° 0 mm 8 m/s 760 mmHg 57%
    10:00 +11°C° 0 mm 9 m/s 760 mmHg 54%
    11:00 +13°C° 0 mm 8 m/s 759 mmHg 52%
    12:00 +15°C° 0 mm 8 m/s 758 mmHg 50%
    13:00 +16°C° 0 mm 8 m/s 758 mmHg 47%
    14:00 +16°C° 0 mm 8 m/s 757 mmHg 49%
    15:00 +16°C° 0 mm 8 m/s 757 mmHg 52%
    16:00 +17°C° 0 mm 8 m/s 756 mmHg 53%
    17:00 +15°C° 0.5 mm 8 m/s 757 mmHg 61%
    18:00 +13°C° 0.5 mm 8 m/s 757 mmHg 68%
    19:00 +12°C° 0.5 mm 8 m/s 758 mmHg 75%
    20:00 +11°C° 0.6 mm 7 m/s 758 mmHg 77%
    21:00 +10°C° 0.6 mm 6 m/s 759 mmHg 78%
    22:00 +9°C° 0.6 mm 5 m/s 760 mmHg 79%
    23:00 +8°C° 0 mm 5 m/s 760 mmHg 80%

    Demain, 25 Août, Dimanche

    Heure Température Précipitation Vent Pression Humidité
    00:00 +8°C° 0 mm 5 m/s 761 mmHg 82%
    01:00 +7°C° 0 mm 4 m/s 761 mmHg 84%
    02:00 +6°C° 0 mm 4 m/s 761 mmHg 84%
    03:00 +6°C° 0 mm 4 m/s 762 mmHg 84%
    04:00 +6°C° 0 mm 4 m/s 762 mmHg 84%
    05:00 +5°C° 0 mm 3 m/s 762 mmHg 83%
    06:00 +5°C° 0 mm 3 m/s 763 mmHg 82%
    07:00 +5°C° 0 mm 3 m/s 763 mmHg 82%
    08:00 +7°C° 0 mm 3 m/s 763 mmHg 75%
    09:00 +9°C° 0 mm 3 m/s 764 mmHg 68%
    10:00 +10°C° 0 mm 3 m/s 764 mmHg 62%
    11:00 +11°C° 0 mm 3 m/s 764 mmHg 59%
    12:00 +11°C° 0 mm 3 m/s 764 mmHg 56%
    13:00 +12°C° 0 mm 3 m/s 764 mmHg 53%
    14:00 +12°C° 0 mm 3 m/s 764 mmHg 54%
    15:00 +12°C° 0 mm 3 m/s 764 mmHg 54%
    16:00 +12°C° 0 mm 3 m/s 764 mmHg 55%
    17:00 +10°C° 0 mm 3 m/s 764 mmHg 61%
    18:00 +9°C° 0 mm 2 m/s 765 mmHg 66%
    19:00 +8°C° 0 mm 2 m/s 765 mmHg 72%
    20:00 +8°C° 0 mm 2 m/s 766 mmHg 74%
    21:00 +7°C° 0 mm 2 m/s 766 mmHg 76%
    22:00 +7°C° 0 mm 2 m/s 766 mmHg 78%
    23:00 +6°C° 0 mm 2 m/s 766 mmHg 80%

    Après-demain, 26 Août, Lundi

    Heure Température Précipitation Vent Pression Humidité
    00:00 +6°C° 0 mm 2 m/s 767 mmHg 81%
    01:00 +6°C° 0 mm 2 m/s 767 mmHg 83%
    02:00 +6°C° 0 mm 2 m/s 766 mmHg 84%
    03:00 +5°C° 0 mm 2 m/s 766 mmHg 86%
    04:00 +5°C° 0 mm 2 m/s 766 mmHg 87%
    05:00 +5°C° 0 mm 2 m/s 766 mmHg 88%
    06:00 +5°C° 0 mm 2 m/s 767 mmHg 88%
    07:00 +6°C° 0 mm 1 m/s 767 mmHg 89%
    08:00 +7°C° 0 mm 2 m/s 767 mmHg 82%
    09:00 +9°C° 0 mm 2 m/s 767 mmHg 74%
    10:00 +12°C° 0 mm 2 m/s 767 mmHg 67%
    11:00 +13°C° 0 mm 2 m/s 767 mmHg 64%
    12:00 +13°C° 0 mm 2 m/s 767 mmHg 60%
    13:00 +14°C° 0 mm 2 m/s 767 mmHg 57%
    14:00 +14°C° 0 mm 2 m/s 766 mmHg 56%
    15:00 +14°C° 0 mm 2 m/s 766 mmHg 55%
    16:00 +15°C° 0 mm 2 m/s 766 mmHg 54%
    17:00 +13°C° 0 mm 1 m/s 766 mmHg 61%
    18:00 +12°C° 0 mm 1 m/s 767 mmHg 68%
    19:00 +10°C° 0 mm 1 m/s 767 mmHg 75%
    20:00 +10°C° 0 mm 1 m/s 767 mmHg 77%
    21:00 +9°C° 0 mm 1 m/s 767 mmHg 80%
    22:00 +8°C° 0 mm 2 m/s 768 mmHg 82%
    23:00 +7°C° 0 mm 2 m/s 768 mmHg 84%

    27 Août, Mardi

    Heure Température Précipitation Vent Pression Humidité
    00:00 +7°C° 0 mm 2 m/s 768 mmHg 86%
    01:00 +7°C° 0 mm 2 m/s 768 mmHg 87%
    02:00 +7°C° 0 mm 2 m/s 767 mmHg 88%
    03:00 +6°C° 0 mm 2 m/s 767 mmHg 89%
    04:00 +7°C° 0 mm 1 m/s 767 mmHg 90%
    05:00 +7°C° 0 mm 1 m/s 767 mmHg 90%
    06:00 +7°C° 0 mm 1 m/s 767 mmHg 90%
    07:00 +7°C° 0 mm 1 m/s 768 mmHg 91%
    08:00 +9°C° 0 mm 1 m/s 768 mmHg 84%
    09:00 +11°C° 0 mm 1 m/s 768 mmHg 77%
    10:00 +12°C° 0 mm 1 m/s 768 mmHg 70%
    11:00 +14°C° 0 mm 1 m/s 767 mmHg 64%
    12:00 +15°C° 0 mm 1 m/s 767 mmHg 59%
    13:00 +16°C° 0 mm 1 m/s 766 mmHg 53%
    14:00 +16°C° 0 mm 1 m/s 766 mmHg 53%
    15:00 +16°C° 0 mm 1 m/s 765 mmHg 54%
    16:00 +16°C° 0 mm 1 m/s 765 mmHg 54%
    17:00 +14°C° 0 mm 1 m/s 765 mmHg 60%
    18:00 +13°C° 0 mm 1 m/s 766 mmHg 67%
    19:00 +10°C° 0 mm 2 m/s 766 mmHg 73%
    20:00 +10°C° 0 mm 2 m/s 766 mmHg 71%
    21:00 +10°C° 0 mm 2 m/s 766 mmHg 68%
    22:00 +12°C° 0 mm 2 m/s 766 mmHg 66%
    23:00 +10°C° 0 mm 2 m/s 766 mmHg 68%

    28 Août, Mercredi

    Heure Température Précipitation Vent Pression Humidité
    00:00 +9°C° 0 mm 2 m/s 766 mmHg 70%
    01:00 +9°C° 0 mm 2 m/s 765 mmHg 72%
    02:00 +8°C° 0 mm 2 m/s 765 mmHg 73%
    03:00 +8°C° 0 mm 3 m/s 764 mmHg 74%
    04:00 +7°C° 0 mm 3 m/s 764 mmHg 76%
    05:00 +7°C° 0 mm 3 m/s 764 mmHg 76%
    06:00 +7°C° 0 mm 3 m/s 764 mmHg 76%
    07:00 +7°C° 0 mm 3 m/s 764 mmHg 77%
    08:00 +8°C° 0 mm 4 m/s 764 mmHg 70%
    09:00 +10°C° 0 mm 5 m/s 764 mmHg 64%
    10:00 +13°C° 0 mm 5 m/s 763 mmHg 58%
    11:00 +13°C° 0 mm 5 m/s 763 mmHg 56%
    12:00 +13°C° 0 mm 5 m/s 762 mmHg 55%
    13:00 +14°C° 0 mm 5 m/s 762 mmHg 54%
    14:00 +13°C° 0.6 mm 6 m/s 761 mmHg 61%
    15:00 +11°C° 0.6 mm 6 m/s 761 mmHg 68%
    16:00 +10°C° 0.6 mm 7 m/s 761 mmHg 75%
    17:00 +9°C° 1.8 mm 6 m/s 762 mmHg 78%
    18:00 +8°C° 1.8 mm 4 m/s 763 mmHg 82%
    19:00 +8°C° 1.8 mm 3 m/s 764 mmHg 85%
    20:00 +7°C° 0.5 mm 4 m/s 764 mmHg 82%
    21:00 +7°C° 0.5 mm 4 m/s 764 mmHg 79%
    22:00 +7°C° 0.5 mm 5 m/s 765 mmHg 76%
    23:00 +6°C° 0.3 mm 5 m/s 765 mmHg 75%

    29 Août, Jeudi

    Heure Température Précipitation Vent Pression Humidité
    00:00 +6°C° 0.3 mm 5 m/s 765 mmHg 74%
    01:00 +6°C° 0.3 mm 5 m/s 766 mmHg 74%
    02:00 +5°C° 0.1 mm 5 m/s 766 mmHg 74%
    03:00 +5°C° 0.1 mm 5 m/s 766 mmHg 74%
    04:00 +5°C° 0.1 mm 5 m/s 766 mmHg 75%
    05:00 +4°C° 0.1 mm 4 m/s 766 mmHg 76%
    06:00 +4°C° 0.1 mm 4 m/s 767 mmHg 78%
    07:00 +4°C° 0.1 mm 4 m/s 767 mmHg 80%
    08:00 +6°C° 0 mm 4 m/s 768 mmHg 73%
    09:00 +7°C° 0 mm 5 m/s 768 mmHg 66%
    10:00 +8°C° 0 mm 5 m/s 768 mmHg 60%
    11:00 +9°C° 0 mm 5 m/s 768 mmHg 58%
    12:00 +10°C° 0 mm 5 m/s 768 mmHg 56%
    13:00 +12°C° 0 mm 5 m/s 768 mmHg 54%
    14:00 +10°C° 0.1 mm 5 m/s 768 mmHg 58%
    15:00 +10°C° 0.1 mm 5 m/s 768 mmHg 61%
    16:00 +10°C° 0.1 mm 5 m/s 768 mmHg 65%
    17:00 +9°C° 0 mm 5 m/s 769 mmHg 68%
    18:00 +8°C° 0 mm 4 m/s 769 mmHg 70%
    19:00 +7°C° 0 mm 4 m/s 770 mmHg 73%
    20:00 +7°C° 0 mm 4 m/s 770 mmHg 74%
    21:00 +6°C° 0 mm 4 m/s 770 mmHg 75%
    22:00 +6°C° 0 mm 4 m/s 771 mmHg 76%
    23:00 +5°C° 0 mm 4 m/s 770 mmHg 78%
    Voir plus